User: anonymous   Login
Location: Frydek-Mistek
(49.6830°N, 18.3330°E)
Time: 13:03:55
(UTC+02:00)
Language:

Courier 1B Rocket - Orbit

View from above orbital plane
View from above orbital plane
View from above satellite
View from above satellite

Ground track
Ground track

The orbit data is extracted from the following two-line orbital elements,

1 00059U 60013B   15187.88068334  .00000103  00000-0  14675-4 0  9997
2 00059 028.2482 142.9722 0189266 235.2136 123.0463 13.52924402702137
Epoch (UTC): 06 July 2015 21:08:11
Eccentricity: 0.0189266
inclination: 28.2482°
perigee height: 921 km
apogee height: 1202 km
right ascension of ascending node: 142.9722°
argument of perigee: 235.2136°
revolutions per day: 13.52924402
mean anomaly at epoch: 123.0463°
orbit number at epoch: 70213

The dashed part of the orbit path shows where the satellite is in the earth's shadow,  

DLR